FW7889 Weather Reports


Display with metric or nautical units.
time (UTC)temp
F
wind
direction
speed
MPH
gust
MPH
rain 1hr
in
rain 24hr
in
rain mn
in
humidity
%
barometer
mb
20260510011559 51 191 5.0 7.0 0.00 0.00 0.00 96 1061.1
20260510010557 51 200 2.0 2.0 0.00 0.00 0.00 97 1061.2
20260510005555 51 243 1.0 1.0 0.00 0.00 0.00 97 1061.2
20260510004551 50 209 2.0 2.0 0.00 0.00 0.00 98 1061.0
20260510003551 50 212 1.0 2.0 0.00 0.00 0.00 97 1060.7
20260510002548 50 209 1.0 1.0 0.00 0.00 0.00 97 1060.8
20260510001548 50 206 2.0 3.0 0.00 0.00 0.00 97 1060.7
20260510000548 51 200 3.0 3.0 0.00 0.00 0.00 96 1060.7
20260509235547 51 205 3.0 3.0 0.00 0.00 0.00 96 1060.7
20260509234545 51 172 3.0 5.0 0.00 0.00 0.00 95 1060.7
20260509233541 51 194 4.0 5.0 0.00 0.00 0.00 95 1060.7
20260509232540 51 237 1.0 2.0 0.00 0.00 0.00 94 1060.9
20260509231539 51 259 0.0 0.0 0.00 0.00 0.00 94 1061.0
20260509230539 51 256 1.0 1.0 0.00 0.00 0.00 94 1060.8
20260509225537 51 166 3.0 5.0 0.00 0.00 0.00 94 1060.8
20260509224534 52 190 3.0 3.0 0.00 0.00 0.00 94 1061.1
20260509223534 51 221 2.0 2.0 0.00 0.00 0.00 94 1060.8
20260509222533 51 232 1.0 1.0 0.00 0.00 0.00 94 1060.7
20260509221531 51 168 5.0 6.0 0.00 0.00 0.00 94 1060.8
20260509220529 51 150 5.0 6.0 0.00 0.00 0.00 94 1060.7
20260509215526 50 173 4.0 6.0 0.00 0.00 0.00 95 1061.0
20260509214526 51 183 4.0 7.0 0.00 0.00 0.00 95 1061.0
20260509213525 51 169 6.0 7.0 0.00 0.00 0.00 94 1061.1
20260509212525 51 271 1.0 1.0 0.00 0.00 0.00 94 1061.1
20260509211523 51 172 5.0 7.0 0.00 0.00 0.00 94 1061.2
20260509210523 50 203 2.0 3.0 0.00 0.00 0.00 94 1061.4
20260509205520 50 234 3.0 3.0 0.00 0.00 0.00 94 1061.3
20260509204518 50 215 1.0 2.0 0.00 0.00 0.00 95 1061.2
20260509203516 50 200 2.0 2.0 0.00 0.00 0.00 95 1061.5
20260509202514 50 177 6.0 8.0 0.00 0.00 0.00 95 1061.5
20260509201511 50 239 2.0 2.0 0.00 0.00 0.00 95 1061.6
20260509200509 50 228 1.0 2.0 0.00 0.00 0.00 95 1061.6
20260509195507 50 187 3.0 3.0 0.00 0.00 0.00 95 1061.8
20260509194503 50 159 5.0 6.0 0.00 0.00 0.00 95 1061.9
20260509193500 49 266 3.0 3.0 0.00 0.00 0.00 96 1062.0
20260509192459 49 198 3.0 3.0 0.00 0.00 0.00 96 1062.1
20260509191455 49 168 6.0 7.0 0.00 0.00 0.00 97 1062.3
20260509190454 49 194 3.0 3.0 0.00 0.00 0.00 97 1062.4
20260509185449 48 165 5.0 6.0 0.00 0.00 0.00 97 1062.4
20260509184444 48 239 2.0 2.0 0.00 0.00 0.00 97 1062.3
20260509183440 48 186 3.0 5.0 0.00 0.00 0.00 98 1062.3
20260509182439 47 179 5.0 6.0 0.00 0.00 0.00 99 1062.3
20260509181435 47 144 5.0 7.0 0.00 0.00 0.00 99 1062.3
20260509180433 47 168 3.0 3.0 0.00 0.00 0.00 99 1062.4
20260509175432 47 138 3.0 3.0 0.00 0.00 0.00 98 1062.5
20260509174431 47 176 3.0 3.0 0.00 0.00 0.00 97 1062.7
20260509173426 47 154 5.0 6.0 0.00 0.00 0.00 95 1062.7
20260509172426 48 177 2.0 2.0 0.00 0.00 0.00 94 1062.8
20260509171424 48 159 6.0 7.0 0.00 0.00 0.00 91 1062.8
20260509170422 48 213 4.0 6.0 0.00 0.00 0.00 90 1062.6
20260509165418 49 179 5.0 6.0 0.00 0.00 0.00 88 1062.9
20260509164416 50 232 1.0 1.0 0.00 0.00 0.00 86 1063.2
20260509163416 49 238 3.0 3.0 0.00 0.00 0.00 87 1063.1
20260509162413 49 195 3.0 3.0 0.00 0.00 0.00 87 1063.1
20260509161411 49 151 3.0 3.0 0.00 0.00 0.00 85 1063.4
20260509160408 50 173 5.0 6.0 0.00 0.00 0.00 84 1063.5
20260509155406 50 220 2.0 2.0 0.00 0.00 0.00 85 1063.5
20260509154404 49 205 3.0 3.0 0.00 0.00 0.00 85 1063.5
20260509153359 49 231 3.0 3.0 0.00 0.00 0.00 85 1063.9
20260509152357 49 182 3.0 5.0 0.00 0.00 0.00 85 1063.8
20260509151356 48 183 5.0 6.0 0.00 0.00 0.00 85 1063.8
20260509150352 48 205 5.0 7.0 0.00 0.00 0.00 84 1063.9
20260509145350 47 199 3.0 5.0 0.00 0.00 0.00 86 1064.2
20260509144349 47 151 4.0 6.0 0.00 0.00 0.00 86 1064.3
20260509143349 47 169 4.0 5.0 0.00 0.00 0.00 86 1064.1
20260509142347 47 177 5.0 6.0 0.00 0.00 0.00 85 1064.5
20260509141346 47 169 6.0 8.0 0.00 0.00 0.00 85 1064.5
20260509140345 47 193 3.0 3.0 0.00 0.00 0.00 86 1064.5
20260509135340 48 207 1.0 2.0 0.00 0.00 0.00 84 1064.3
20260509134341 48 236 1.0 2.0 0.00 0.00 0.00 83 1064.5
20260509133340 48 165 5.0 6.0 0.00 0.00 0.00 81 1064.4
20260509132337 49 151 6.0 10.0 0.00 0.00 0.00 79 1064.6
20260509131336 49 131 9.0 9.0 0.00 0.00 0.00 76 1064.5
20260509130334 48 135 7.0 9.0 0.00 0.00 0.00 74 1064.5
20260509125333 48 185 6.0 8.0 0.00 0.00 0.00 71 1064.4
20260509124332 47 133 6.0 8.0 0.00 0.00 0.00 69 1064.5
20260509123327 47 137 6.0 7.0 0.00 0.00 0.00 69 1064.7
20260509122325 47 130 9.0 10.0 0.00 0.00 0.00 69 1064.7
20260509121325 47 155 3.0 5.0 0.00 0.00 0.00 71 1064.8
20260509120321 46 191 4.0 5.0 0.00 0.00 0.00 71 1064.8
20260509115316 46 159 5.0 6.0 0.00 0.00 0.00 70 1064.8
20260509114312 45 161 5.0 7.0 0.00 0.00 0.00 70 1065.0
20260509113307 45 125 4.0 6.0 0.00 0.00 0.00 69 1065.1
20260509112307 44 162 7.0 9.0 0.00 0.00 0.00 68 1064.8
20260509111307 44 141 7.0 8.0 0.00 0.00 0.00 68 1064.9
20260509110307 43 141 8.0 8.0 0.00 0.00 0.00 71 1064.9
20260509105306 42 149 4.0 5.0 0.00 0.00 0.00 69 1065.2
20260509104302 42 147 5.0 6.0 0.00 0.00 0.00 69 1065.2
20260509103257 41 169 5.0 6.0 0.00 0.00 0.00 71 1064.9
20260509102252 31 302 1.0 1.0 0.00 0.00 0.00 99 1065.0
20260509101250 30 306 2.0 2.0 0.00 0.00 0.00 99 1065.0
20260509100245 29 307 2.0 2.0 0.00 0.00 0.00 99 1064.8
20260509095245 29 307 2.0 2.0 0.00 0.00 0.00 99 1065.0
20260509094244 29 303 1.0 1.0 0.00 0.00 0.00 99 1064.9
20260509093239 29 292 1.0 1.0 0.00 0.00 0.00 99 1065.1
20260509092235 29 311 1.0 1.0 0.00 0.00 0.00 99 1064.9
20260509091235 29 309 1.0 1.0 0.00 0.00 0.00 99 1065.1
20260509090235 28 294 1.0 2.0 0.00 0.00 0.00 99 1065.2
20260509085230 28 302 1.0 1.0 0.00 0.00 0.00 99 1065.2
20260509084229 28 309 2.0 2.0 0.00 0.00 0.00 99 1065.3
20260509083224 28 303 2.0 2.0 0.00 0.00 0.00 99 1065.5
20260509082223 28 298 1.0 1.0 0.00 0.00 0.00 99 1065.4
20260509081223 28 290 1.0 1.0 0.00 0.00 0.00 99 1065.5
20260509080219 28 281 1.0 1.0 0.00 0.00 0.00 99 1065.3
20260509075214 28 285 0.0 0.0 0.00 0.00 0.00 99 1065.4
20260509074214 29 294 1.0 1.0 0.00 0.00 0.00 99 1065.4
20260509073213 29 286 1.0 1.0 0.00 0.00 0.00 99 1065.3
20260509072212 29 285 0.0 1.0 0.00 0.00 0.00 99 1065.4
20260509071212 29 290 1.0 1.0 0.00 0.00 0.00 98 1065.4
20260509070211 29 286 0.0 1.0 0.00 0.00 0.00 98 1065.3
20260509065209 29 295 1.0 1.0 0.00 0.00 0.00 98 1065.5
20260509064204 29 293 1.0 1.0 0.00 0.00 0.00 98 1065.4
20260509063203 29 290 1.0 1.0 0.00 0.00 0.00 98 1065.4
20260509062203 29 288 1.0 1.0 0.00 0.00 0.00 98 1065.5
20260509061203 29 302 1.0 1.0 0.00 0.00 0.00 98 1065.6
20260509060203 29 297 1.0 1.0 0.00 0.00 0.00 97 1065.9
20260509055200 29 287 1.0 1.0 0.00 0.00 0.00 97 1065.9
20260509054200 29 286 1.0 1.0 0.00 0.00 0.00 97 1066.2
20260509053155 29 281 1.0 1.0 0.00 0.00 0.00 96 1066.1
20260509052150 29 282 0.0 1.0 0.00 0.00 0.00 96 1066.0
20260509051145 29 280 0.0 0.0 0.00 0.00 0.00 96 1066.0
20260509050144 29 301 1.0 1.0 0.00 0.00 0.00 96 1066.4
20260509045144 29 290 1.0 1.0 0.00 0.00 0.00 95 1066.4
20260509044144 29 281 0.0 0.0 0.00 0.00 0.00 95 1066.2
20260509043142 30 281 0.0 0.0 0.00 0.00 0.00 95 1066.4
20260509042141 30 282 1.0 1.0 0.00 0.00 0.00 94 1066.2
20260509041135 30 281 0.0 0.0 0.00 0.00 0.00 94 1066.1
20260509040130 30 279 0.0 0.0 0.00 0.00 0.00 94 1065.9
20260509035129 30 275 0.0 0.0 0.00 0.00 0.00 94 1065.8
20260509034124 30 289 1.0 1.0 0.00 0.00 0.00 93 1065.8
20260509033124 30 280 0.0 0.0 0.00 0.00 0.00 93 1066.0
20260509032124 31 285 0.0 0.0 0.00 0.00 0.00 92 1066.0
20260509031119 31 285 0.0 0.0 0.00 0.00 0.00 92 1066.4
20260509030120 32 288 1.0 1.0 0.00 0.00 0.00 91 1066.1
20260509025117 32 288 1.0 1.0 0.00 0.00 0.00 90 1066.4
20260509024115 32 288 1.0 1.0 0.00 0.00 0.00 89 1066.5
20260509023110 32 290 1.0 1.0 0.00 0.00 0.00 86 1066.2
20260509022110 33 287 1.0 1.0 0.00 0.00 0.00 87 1066.0
20260509021109 33 293 1.0 1.0 0.00 0.00 0.00 85 1066.1
20260509020104 34 293 1.0 1.0 0.00 0.00 0.00 82 1066.0
20260509015100 34 284 1.0 1.0 0.00 0.00 0.00 79 1065.8
20260509014058 35 285 0.0 1.0 0.00 0.00 0.00 79 1065.7
20260509013057 35 291 1.0 1.0 0.00 0.00 0.00 72 1065.5